Home   Weather   Mendrisio   Past weeks

Flag for Switzerland Past Weather in Mendrisio, Ticino, Switzerland — Yesterday and Last 2 Weeks

Now
22 °F

Cold.


Feels Like: 22 °F
Forecast: 22 / 30 °F
Wind: 2 mph from Southwest

Location: Stabio

Current Time: Jan 20, 2017 at 12:48:52 am

Latest Report: Jan 19, 2017 at 11:00 pm


Visibility: N/A

Pressure: 30.57 "Hg

Humidity: 89%

Dew Point: 19 °F

Location of MendrisioLocation

Past Weather in Mendrisio — Graph

°F

Mendrisio Temperature Yesterday

Maximum temperature yesterday: 41 °F (at 4:00 pm)
Minimum temperature yesterday: 18 °F (at 8:00 am)
Average temperature yesterday: 27 °F

High & Low Weather Summary for the Past Weeks

 TemperatureHumidityPressure
High46 °F (Jan 4, 11:00 pm)97% (Jan 12, 11:00 pm)30.57 "Hg (Jan 12, 11:00 pm)
Low15 °F (Jan 7, 8:00 am)17% (Jan 5, 10:00 pm)29.53 "Hg (Jan 13, 2:00 pm)
Average30 °F57%30.14 "Hg
* Reported Jan 4 11:00 pm — Jan 19 11:00 pm, Mendrisio, Weather by CustomWeather, © 2017

Note: Actual official high and low records may vary slightly from our data, if they occured in-between our weather recording intervals... More about our weather records

Advertising

Mendrisio Weather History for the Previous 24 Hours

Scroll right to see more
 ConditionsComfort  
Time TempWeatherWind HumidityBarometerVisibility
11:00 pm
Thu, Jan 19
22 °FCold.2 mph89%30.57 "HgN/A
10:00 pm23 °FCold.1 mph78%30.57 "HgN/A
9:00 pm24 °FCold.2 mph71%30.55 "HgN/A
8:00 pm26 °FChilly.1 mph68%30.52 "HgN/A
7:00 pm27 °FChilly.1 mph73%30.50 "HgN/A
6:00 pm29 °FChilly.2 mph61%30.47 "HgN/A
5:00 pm33 °FChilly.1 mph57%30.45 "HgN/A
4:00 pm41 °FQuite cool.1 mph40%30.42 "HgN/A
3:00 pm41 °FQuite cool.2 mph45%30.42 "HgN/A
2:00 pm40 °FQuite cool.2 mph41%30.42 "HgN/A
1:00 pm39 °FChilly.1 mph47%30.44 "HgN/A
12:00 pm37 °FChilly.1 mph50%30.46 "HgN/A
11:00 am35 °FChilly.2 mph60%30.47 "HgN/A
10:00 am25 °FChilly.1 mph74%30.49 "HgN/A
9:00 am18 °FCold.2 mph93%30.49 "HgN/A
8:00 am18 °FCold.2 mph88%30.47 "HgN/A
7:00 am20 °FCold.1 mph87%30.47 "HgN/A
6:00 am18 °FCold.2 mph83%30.46 "HgN/A
5:00 am18 °FCold.1 mph89%30.45 "HgN/A
4:00 am20 °FCold.1 mph80%30.43 "HgN/A
3:00 am22 °FCold.No wind85%30.42 "HgN/A
2:00 am23 °FCold.2 mph80%30.42 "HgN/A
1:00 am27 °FChilly.1 mph68%30.42 "HgN/A
12:00 am27 °FChilly.2 mph71%30.42 "HgN/A
Weather by CustomWeather, © 2017

See weather overviewHow to use our weather pages